Location: LDNL
(36.4545°S, 141.6685°E)
Time: 04:17:02
(UTC+11:00)

Vanguard 2 - Pass Details

Date: 19 August 2022
Orbit: 552 x 2934 km, 32.9° (Epoch: 06 October)

Event Time Altitude Azimuth Distance (km) Brightness Sun altitude
Rises 16:48:42 0° 283° (WNW) 6,685 14.0 13.1°
Reaches altitude 10° 16:53:03 10° 284° (WNW) 5,748 14.2 12.3°
Maximum altitude 17:11:07 77° 6° (N) 2,745 10.6 9.0°
Drops below altitude 10° 17:24:48 10° 88° (E) 4,514 10.9 6.4°
Sets 17:27:46 0° 89° (E) 5,243 11.2 5.9°
